Weather History for Elmira, NY

Change the Weather History Date:

Saturday, August 3, 2013

  Actual Average Record
Temperature  
Mean Temperature 67 °F -  
Max Temperature 79 °F 83 °F 97 °F (1930)
Min Temperature 55 °F 58 °F 41 °F (1959)
Cooling Degree Days 2    
Growing Degree Days 17 (Base 50)    
Moisture  
Dew Point 54 °F    
Average Humidity 61    
Maximum Humidity 87    
Minimum Humidity 36    
Precipitation  
Precipitation 0.00 in - - ()
Sea Level Pressure  
Sea Level Pressure 29.89 in    
Wind  
Wind Speed 6 mph (WNW)    
Max Wind Speed 13 mph    
Max Gust Speed 21 mph    
Visibility 10 miles    
Events      
Averages and records for this station are not official NWS values.
T = Trace of Precipitation, MM = Missing Value Source: NWS Daily Summary

Daily Weather History Graph

Daily Weather History Graph

Search for Another Location

Airport:

Trip Planner

Search our weather history database for the weather conditions in past years. The results will help you decide how hot, cold, wet, or windy it might be!

Date:

Astronomy

Aug. 03, 2013 Rise Set
Actual Time 6:02 AM EDT 8:23 PM EDT
Civil Twilight 5:31 AM EDT 8:55 PM EDT
Nautical Twilight 4:52 AM EDT 9:33 PM EDT
Astronomical Twilight 4:09 AM EDT 10:16 PM EDT
Moon 3:09 AM EDT (8/3) 6:05 PM EDT (8/3)
Length of Visible Light 15h 23m
Length of Day
14h 21m
Waning Crescent, 9% of the Moon is Illuminated
Aug 3
Waning Crescent
Aug 6
New
Aug 14
First Quarter
Aug 20
Full
Aug 28
Last Quarter

Hourly Weather History & Observations

Time (EDT) Temp. Dew Point Humidity Pressure Visibility Wind Dir Wind Speed Gust Speed Precip Events Conditions
12:53 AM 64.9 °F 54.0 °F 68% 29.86 in 10.0 mi West 4.6 mph - N/A   Scattered Clouds
1:53 AM 64.9 °F 54.0 °F 68% 29.85 in 10.0 mi West 4.6 mph - N/A   Scattered Clouds
2:53 AM 66.0 °F 55.9 °F 70% 29.85 in 10.0 mi WSW 4.6 mph - N/A   Clear
3:53 AM 66.0 °F 57.0 °F 73% 29.86 in 10.0 mi West 8.1 mph - N/A   Clear
4:53 AM 64.0 °F 57.9 °F 80% 29.87 in 10.0 mi SW 8.1 mph - N/A   Partly Cloudy
5:53 AM 61.0 °F 57.0 °F 87% 29.88 in 10.0 mi Calm Calm - N/A   Clear
6:53 AM 63.0 °F 57.9 °F 84% 29.89 in 10.0 mi West 3.5 mph - N/A   Clear
7:53 AM 64.0 °F 59.0 °F 84% 29.91 in 10.0 mi WSW 5.8 mph - N/A   Clear
8:53 AM 70.0 °F 61.0 °F 73% 29.89 in 10.0 mi West 8.1 mph - N/A   Partly Cloudy
9:53 AM 73.0 °F 57.9 °F 59% 29.90 in 10.0 mi NW 10.4 mph 16.1 mph N/A   Clear
10:53 AM 73.9 °F 57.0 °F 55% 29.90 in 10.0 mi WNW 5.8 mph - N/A   Mostly Cloudy
11:53 AM 75.0 °F 53.1 °F 46% 29.89 in 10.0 mi WNW 11.5 mph 18.4 mph N/A   Mostly Cloudy
12:53 PM 77.0 °F 53.1 °F 43% 29.89 in 10.0 mi West 12.7 mph - N/A   Scattered Clouds
1:53 PM 78.1 °F 52.0 °F 40% 29.88 in 10.0 mi WNW 11.5 mph 20.7 mph N/A   Clear
2:53 PM 79.0 °F 51.1 °F 38% 29.88 in 10.0 mi WNW 11.5 mph 20.7 mph N/A   Partly Cloudy
3:53 PM 79.0 °F 50.0 °F 36% 29.87 in 10.0 mi NNW 10.4 mph 18.4 mph N/A   Scattered Clouds
4:53 PM 78.1 °F 50.0 °F 37% 29.88 in 10.0 mi NW 10.4 mph 20.7 mph N/A   Clear
5:53 PM 77.0 °F 48.9 °F 37% 29.88 in 10.0 mi WNW 9.2 mph - N/A   Clear
6:53 PM 75.0 °F 46.9 °F 37% 29.88 in 10.0 mi NW 8.1 mph - N/A   Clear
7:53 PM 70.0 °F 50.0 °F 49% 29.91 in 10.0 mi North 8.1 mph - N/A   Clear
8:53 PM 61.0 °F 53.1 °F 75% 29.93 in 10.0 mi NW 4.6 mph - N/A   Clear
9:53 PM 63.0 °F 52.0 °F 67% 29.94 in 10.0 mi WSW 5.8 mph - N/A   Clear
10:53 PM 55.9 °F 51.1 °F 84% 29.94 in 10.0 mi Calm Calm - N/A   Clear
11:53 PM 55.0 °F 51.1 °F 86% 29.94 in 10.0 mi NNW 3.5 mph - N/A   Clear